Weather History for Audubon, IA

Change the Weather History Date:

Monday, February 18, 2013

  Actual Average Record
Temperature  
Mean Temperature 28 °F -  
Max Temperature 41 °F 36 °F 63 °F (1981)
Min Temperature 15 °F 19 °F -13 °F (2006)
Degree Days  
Heating Degree Days 37    
Moisture  
Dew Point 22 °F    
Average Humidity 75    
Maximum Humidity 93    
Minimum Humidity 64    
Precipitation  
Precipitation 0.00 in - - ()
Sea Level Pressure  
Sea Level Pressure 29.73 in    
Wind  
Wind Speed 11 mph (NW)    
Max Wind Speed 26 mph    
Max Gust Speed 36 mph    
Visibility 10 miles    
Events      
Averages and records for this station are not official NWS values.
T = Trace of Precipitation, MM = Missing Value Source: NWS Daily Summary

Daily Weather History Graph

Daily Weather History Graph

Search for Another Location

Airport:

Trip Planner

Search our weather history database for the weather conditions in past years. The results will help you decide how hot, cold, wet, or windy it might be!

Date:

Astronomy

Feb. 18, 2013 Rise Set
Actual Time 7:10 AM CST 5:57 PM CST
Civil Twilight 6:42 AM CST 6:25 PM CST
Nautical Twilight 6:09 AM CST 6:57 PM CST
Astronomical Twilight 5:37 AM CST 7:30 PM CST
Moon 11:41 AM CST (2/18) 1:53 AM CST (2/18)
Length of Visible Light 11h 43m
Length of Day
10h 46m
First Quarter, 58% of the Moon is Illuminated
Feb 18
First Quarter
Feb 25
Full
Mar 4
Last Quarter
Mar 11
New
Mar 19
First Quarter

Hourly Weather History & Observations

Time (CST) Temp. Windchill Dew Point Humidity Pressure Visibility Wind Dir Wind Speed Gust Speed Precip Events Conditions
12:15 AM 41.0 °F 35.8 °F 30.2 °F 65% 29.59 in 10.0 mi South 8.1 mph - N/A   Clear
12:55 AM 41.0 °F 35.2 °F 30.2 °F 65% 29.58 in 10.0 mi South 9.2 mph - N/A   Clear
1:15 AM 39.2 °F 33.6 °F 30.2 °F 70% 29.57 in 10.0 mi South 8.1 mph - N/A   Clear
1:35 AM 39.2 °F 34.2 °F 30.2 °F 70% 29.56 in 10.0 mi South 6.9 mph - N/A   Clear
1:55 AM 39.2 °F 34.2 °F 30.2 °F 70% 29.56 in 10.0 mi South 6.9 mph - N/A   Clear
2:15 AM 37.4 °F 34.9 °F 30.2 °F 75% 29.57 in 10.0 mi WSW 3.5 mph - N/A   Clear
2:35 AM 39.2 °F 33.0 °F 30.2 °F 70% 29.59 in 10.0 mi WSW 9.2 mph - N/A   Clear
2:55 AM 37.4 °F 33.8 °F 30.2 °F 75% 29.59 in 10.0 mi WNW 4.6 mph - N/A   Clear
3:15 AM 35.6 °F - 28.4 °F 75% 29.58 in 10.0 mi Calm Calm - N/A   Clear
3:35 AM 30.2 °F - 24.8 °F 80% 29.57 in 10.0 mi Calm Calm - N/A   Clear
3:55 AM 28.4 °F - 24.8 °F 86% 29.56 in 10.0 mi Calm Calm - N/A   Clear
4:15 AM 28.4 °F - 24.8 °F 86% 29.56 in 10.0 mi Calm Calm - N/A   Clear
4:35 AM 28.4 °F - 24.8 °F 86% 29.57 in 10.0 mi Calm Calm - N/A   Clear
4:55 AM 28.4 °F - 26.6 °F 93% 29.57 in 10.0 mi Calm Calm - N/A   Clear
5:15 AM 28.4 °F - 24.8 °F 86% 29.58 in 10.0 mi Calm Calm - N/A   Clear
5:35 AM 32.0 °F 23.6 °F 28.4 °F 87% 29.57 in 10.0 mi NNW 10.4 mph - N/A   Clear
5:55 AM 35.6 °F 28.0 °F 30.2 °F 81% 29.57 in 10.0 mi NW 10.4 mph - N/A   Clear
6:15 AM 35.6 °F 27.5 °F 30.2 °F 81% 29.57 in 10.0 mi NNW 11.5 mph - N/A   Clear
6:35 AM 35.6 °F 28.6 °F 30.2 °F 81% 29.58 in 10.0 mi NNW 9.2 mph - N/A   Clear
6:55 AM 35.6 °F 28.0 °F 30.2 °F 81% 29.60 in 10.0 mi NNW 10.4 mph - N/A   Clear
7:15 AM 33.8 °F 27.7 °F 30.2 °F 87% 29.62 in 10.0 mi NNW 6.9 mph - N/A   Clear
7:35 AM 33.8 °F 27.7 °F 30.2 °F 87% 29.63 in 10.0 mi NNW 6.9 mph - N/A   Clear
7:55 AM 33.8 °F 25.8 °F 30.2 °F 87% 29.62 in 10.0 mi NNW 10.4 mph - N/A   Clear
8:15 AM 35.6 °F 27.5 °F 30.2 °F 81% 29.64 in 10.0 mi NW 11.5 mph - N/A   Clear
8:35 AM 35.6 °F 28.0 °F 32.0 °F 87% 29.63 in 10.0 mi NNW 10.4 mph - N/A   Clear
8:55 AM 37.4 °F 28.2 °F 33.8 °F 87% 29.63 in 10.0 mi NNW 16.1 mph - N/A   Scattered Clouds
9:15 AM 39.2 °F 31.2 °F 33.8 °F 81% 29.64 in 10.0 mi NNW 13.8 mph 27.6 mph N/A   Mostly Cloudy
9:35 AM 37.4 °F 28.9 °F 33.8 °F 87% 29.65 in 10.0 mi NNW 13.8 mph 20.7 mph N/A   Mostly Cloudy
9:55 AM 37.4 °F 29.3 °F 32.0 °F 81% 29.66 in 10.0 mi NW 12.7 mph 17.3 mph N/A   Overcast
10:15 AM 37.4 °F 29.3 °F 32.0 °F 81% 29.66 in 10.0 mi NNW 12.7 mph - N/A   Overcast
10:35 AM 37.4 °F 30.3 °F 32.0 °F 81% 29.67 in 10.0 mi NNW 10.4 mph 17.3 mph N/A   Overcast
10:55 AM 37.4 °F 27.8 °F 32.0 °F 81% 29.67 in 10.0 mi NW 17.3 mph 23.0 mph N/A   Overcast
11:15 AM 35.6 °F 24.5 °F 30.2 °F 81% 29.68 in 10.0 mi NNW 20.7 mph 28.8 mph N/A   Overcast
11:35 AM 35.6 °F 24.2 °F 28.4 °F 75% 29.69 in 10.0 mi NW 21.9 mph 29.9 mph N/A   Overcast
11:55 AM 32.0 °F 19.8 °F 24.8 °F 75% 29.71 in 7.0 mi NW 20.7 mph 33.4 mph N/A   Overcast
12:15 PM 30.2 °F 19.8 °F 24.8 °F 80% 29.72 in 0.8 mi NW 13.8 mph 28.8 mph N/A   Overcast
12:35 PM 30.2 °F 19.3 °F 26.6 °F 86% 29.72 in 1.0 mi NW 15.0 mph 24.2 mph N/A   Overcast
12:55 PM 30.2 °F 20.2 °F 24.8 °F 80% 29.72 in 2.0 mi NW 12.7 mph 26.5 mph N/A   Mostly Cloudy
1:15 PM 30.2 °F 18.9 °F 24.8 °F 80% 29.73 in 10.0 mi NW 16.1 mph 31.1 mph N/A   Scattered Clouds
1:35 PM 30.2 °F 17.1 °F 23.0 °F 75% 29.73 in 10.0 mi NW 21.9 mph 27.6 mph N/A   Scattered Clouds
1:55 PM 30.2 °F 19.8 °F 23.0 °F 75% 29.74 in 10.0 mi NW 13.8 mph 29.9 mph N/A   Scattered Clouds
2:15 PM 30.2 °F 17.8 °F 21.2 °F 69% 29.75 in 10.0 mi NW 19.6 mph 28.8 mph N/A   Scattered Clouds
2:35 PM 28.4 °F 13.5 °F 21.2 °F 74% 29.75 in 10.0 mi NW 26.5 mph 34.5 mph N/A   Clear
2:55 PM 28.4 °F 15.4 °F 19.4 °F 69% 29.76 in 10.0 mi NW 19.6 mph 35.7 mph N/A   Clear
3:15 PM 30.2 °F 17.8 °F 19.4 °F 64% 29.77 in 10.0 mi NW 19.6 mph 31.1 mph N/A   Clear
3:35 PM 28.4 °F 14.7 °F 19.4 °F 69% 29.79 in 10.0 mi NW 21.9 mph 34.5 mph N/A   Scattered Clouds
3:55 PM 28.4 °F 15.1 °F 17.6 °F 64% 29.80 in 10.0 mi NW 20.7 mph 29.9 mph N/A   Mostly Cloudy
4:15 PM 28.4 °F 16.2 °F 17.6 °F 64% 29.80 in 10.0 mi NW 17.3 mph 25.3 mph N/A   Overcast
4:35 PM 26.6 °F 12.4 °F 15.8 °F 64% 29.80 in 10.0 mi NW 21.9 mph 31.1 mph N/A   Mostly Cloudy
4:55 PM 26.6 °F 12.4 °F 15.8 °F 64% 29.81 in 10.0 mi NW 21.9 mph 32.2 mph N/A   Scattered Clouds
5:15 PM 26.6 °F 12.7 °F 15.8 °F 64% 29.81 in 10.0 mi NW 20.7 mph 27.6 mph N/A   Clear
5:35 PM 24.8 °F 11.1 °F 14.0 °F 64% 29.83 in 10.0 mi NW 18.4 mph 32.2 mph N/A   Clear
5:55 PM 24.8 °F 11.5 °F 14.0 °F 64% 29.84 in 10.0 mi NW 17.3 mph 26.5 mph N/A   Scattered Clouds
6:15 PM 23.0 °F 9.6 °F 14.0 °F 68% 29.85 in 10.0 mi NW 16.1 mph 28.8 mph N/A   Scattered Clouds
6:35 PM 23.0 °F 9.2 °F 14.0 °F 68% 29.86 in 10.0 mi WNW 17.3 mph 26.5 mph N/A   Clear
6:55 PM 21.2 °F 7.8 °F 12.2 °F 68% 29.88 in 10.0 mi NW 15.0 mph 27.6 mph N/A   Clear
7:15 PM 21.2 °F 8.3 °F 12.2 °F 68% 29.89 in 10.0 mi NW 13.8 mph 29.9 mph N/A   Clear
7:35 PM 21.2 °F 6.0 °F 12.2 °F 68% 29.90 in 10.0 mi NW 19.6 mph 29.9 mph N/A   Clear
7:55 PM 19.4 °F 6.6 °F 12.2 °F 74% 29.91 in 10.0 mi NW 12.7 mph 26.5 mph N/A   Clear
8:15 PM 19.4 °F 6.0 °F 10.4 °F 68% 29.91 in 10.0 mi NW 13.8 mph 32.2 mph N/A   Scattered Clouds
8:35 PM 17.6 °F 0.9 °F 10.4 °F 73% 29.92 in 10.0 mi NW 20.7 mph 29.9 mph N/A   Clear
8:55 PM 17.6 °F 3.2 °F 8.6 °F 68% 29.92 in 10.0 mi NW 15.0 mph 34.5 mph N/A   Clear
9:15 PM 17.6 °F 4.3 °F 8.6 °F 68% 29.93 in 10.0 mi NW 12.7 mph 23.0 mph N/A   Clear
9:35 PM 17.6 °F 3.2 °F 8.6 °F 68% 29.93 in 10.0 mi NW 15.0 mph 21.9 mph N/A   Clear
9:55 PM 17.6 °F 3.2 °F 8.6 °F 68% 29.93 in 10.0 mi NW 15.0 mph 24.2 mph N/A   Clear
10:15 PM 17.6 °F 3.2 °F 10.4 °F 73% 29.94 in 10.0 mi NW 15.0 mph 31.1 mph N/A   Clear
10:35 PM 17.6 °F 1.3 °F 8.6 °F 68% 29.95 in 10.0 mi NW 19.6 mph 26.5 mph N/A   Clear
10:55 PM 15.8 °F 0.9 °F 8.6 °F 73% 29.95 in 10.0 mi WNW 15.0 mph 27.6 mph N/A   Scattered Clouds
11:15 PM 15.8 °F 0.9 °F 8.6 °F 73% 29.96 in 10.0 mi NW 15.0 mph 26.5 mph N/A   Scattered Clouds
11:35 PM 15.8 °F 1.4 °F 6.8 °F 68% 29.97 in 10.0 mi NW 13.8 mph 27.6 mph N/A   Clear
11:55 PM 15.8 °F 2.1 °F 6.8 °F 68% 29.98 in 10.0 mi NW 12.7 mph 25.3 mph N/A   Clear